Port Clinton Carl R Keller Fi, OH

2:17 AM EDT on September 26, 2017 (GMT -0400)
Keller

Weather History for KPCW - December, 2013

Change the Weather History Date:

Sunday, December 15, 2013

  Actual Average (KTTF) Record (KTTF)
Temperature  
Mean Temperature 20 °F -  
Max Temperature 26 °F 37 °F 65 °F (1975)
Min Temperature 15 °F 23 °F -1 °F (1958)
Degree Days  
Heating Degree Days 44    
Moisture  
Dew Point 16 °F    
Average Humidity 79    
Maximum Humidity 86    
Minimum Humidity 73    
Precipitation  
Precipitation 0.00 in - - ()
Sea Level Pressure  
Sea Level Pressure 29.90 in    
Wind  
Wind Speed 15 mph (WSW)    
Max Wind Speed 26 mph    
Max Gust Speed -    
Visibility 8 miles    
Events Rain , Snow    
Averages and records for this station are not official NWS values.
T = Trace of Precipitation, MM = Missing Value Source: NWS Daily Summary

Daily Weather History Graph

Daily Weather History Graph

Search for Another Location

Airport or City:

Trip Planner

Search our weather history database for the weather conditions in past years. The results will help you decide how hot, cold, wet, or windy it might be!

Date:

Astronomy

Dec. 15, 2013 Rise Set
Actual Time 7:51 AM EST 5:02 PM EST
Civil Twilight 7:19 AM EST 5:33 PM EST
Nautical Twilight 6:44 AM EST 6:08 PM EST
Astronomical Twilight 6:11 AM EST 6:42 PM EST
Moon 4:06 PM EST (12/15) 6:05 AM EST (12/15)
Length of Visible Light 10h 14m
Length of Day
9h 11m
Waxing Gibbous, 97% of the Moon is Illuminated
Dec 15
Waxing Gibbous
Dec 17
Full
Dec 25
Last Quarter
Jan 1
New
Jan 7
First Quarter

Hourly Weather History & Observations

Time (EST) Temp. Windchill Dew Point Humidity Pressure Visibility Wind Dir Wind Speed Gust Speed Precip Events Conditions
12:13 AM 26.6 °F 15.2 °F 23.0 °F 86% 29.78 in 10.0 mi NNW 13.8 mph - N/A Rain Light Freezing Rain
12:27 AM 26.6 °F 15.2 °F 23.0 °F 86% 29.78 in 8.0 mi NNW 13.8 mph - N/A Rain Light Freezing Rain
12:53 AM 26.6 °F 15.7 °F 23.0 °F 86% 29.76 in 6.0 mi NNW 12.7 mph - N/A Snow Light Snow
1:13 AM 26.6 °F 16.2 °F 23.0 °F 86% 29.77 in 10.0 mi NW 11.5 mph - N/A Rain Light Freezing Rain
1:34 AM 26.6 °F 16.8 °F 21.2 °F 80% 29.79 in 10.0 mi NW 10.4 mph - N/A   Overcast
1:35 AM 26.6 °F 16.2 °F 21.2 °F 80% 29.79 in 10.0 mi NW 11.5 mph - N/A   Overcast
3:29 AM 24.8 °F 12.9 °F 21.2 °F 86% 29.82 in 10.0 mi WNW 13.8 mph - N/A   Overcast
3:33 AM 24.8 °F 12.9 °F 21.2 °F 86% 29.82 in 10.0 mi WNW 13.8 mph - N/A   Overcast
3:53 AM 24.8 °F 14.6 °F 21.2 °F 86% 29.82 in 10.0 mi West 10.4 mph - N/A   Overcast
4:13 AM 24.8 °F 15.3 °F 19.4 °F 80% 29.83 in 10.0 mi West 9.2 mph - N/A   Overcast
4:34 AM 24.8 °F 14.0 °F 19.4 °F 80% 29.83 in 10.0 mi West 11.5 mph - N/A   Overcast
4:53 AM 24.8 °F 14.0 °F 19.4 °F 80% 29.84 in 10.0 mi West 11.5 mph - N/A   Overcast
5:13 AM 24.8 °F 13.4 °F 19.4 °F 80% 29.84 in 10.0 mi West 12.7 mph - N/A   Overcast
5:34 AM 24.8 °F 14.0 °F 19.4 °F 80% 29.85 in 10.0 mi West 11.5 mph - N/A   Overcast
5:53 AM 24.8 °F 13.4 °F 19.4 °F 80% 29.85 in 10.0 mi West 12.7 mph - N/A   Overcast
6:13 AM 23.0 °F 11.7 °F 19.4 °F 86% 29.87 in 10.0 mi West 11.5 mph - N/A   Overcast
6:34 AM 23.0 °F 11.1 °F 19.4 °F 86% 29.86 in 10.0 mi West 12.7 mph - N/A   Overcast
6:53 AM 23.0 °F 12.4 °F 19.4 °F 86% 29.86 in 10.0 mi West 10.4 mph - N/A   Overcast
7:14 AM 23.0 °F 11.7 °F 19.4 °F 86% 29.87 in 10.0 mi West 11.5 mph - N/A   Overcast
7:34 AM 23.0 °F 17.0 °F 17.6 °F 80% 29.85 in 10.0 mi SW 4.6 mph - N/A   Overcast
7:53 AM 23.0 °F 11.1 °F 19.4 °F 86% 29.87 in 10.0 mi WSW 12.7 mph - N/A   Overcast
8:13 AM 23.0 °F 11.7 °F 19.4 °F 86% 29.87 in 10.0 mi WSW 11.5 mph - N/A   Overcast
8:33 AM 23.0 °F 10.6 °F 19.4 °F 86% 29.86 in 10.0 mi SW 13.8 mph - N/A Rain Light Freezing Rain
8:53 AM 24.1 °F 12.0 °F 20.1 °F 85% 29.86 in 7.0 mi SW 13.8 mph - N/A Snow Light Snow
9:13 AM 24.8 °F 14.0 °F 21.2 °F 86% 29.87 in 4.0 mi SW 11.5 mph - N/A Snow Light Snow
9:33 AM 24.8 °F 14.6 °F 21.2 °F 86% 29.87 in 4.0 mi SW 10.4 mph - N/A Snow Light Snow
9:53 AM 24.8 °F 14.0 °F 21.2 °F 86% 29.88 in 5.0 mi SW 11.5 mph - N/A Snow Light Snow
10:13 AM 26.6 °F 15.7 °F 21.2 °F 80% 29.86 in 5.0 mi SW 12.7 mph - N/A Snow Light Snow
10:34 AM 26.6 °F 14.7 °F 21.2 °F 80% 29.86 in 6.0 mi WSW 15.0 mph - N/A Snow Light Snow
10:53 AM 26.6 °F 11.7 °F 21.2 °F 80% 29.87 in 4.0 mi WSW 24.2 mph - N/A Snow Light Snow
11:13 AM 26.6 °F 13.4 °F 21.2 °F 80% 29.87 in 8.0 mi WSW 18.4 mph - N/A Snow Light Snow
11:34 AM 26.6 °F 12.4 °F 19.4 °F 74% 29.86 in 9.0 mi WSW 21.9 mph - N/A   Overcast
11:53 AM 24.8 °F 9.3 °F 19.4 °F 80% 29.86 in 8.0 mi WSW 24.2 mph - N/A   Overcast
12:14 PM 23.0 °F 7.2 °F 17.6 °F 80% 29.86 in 4.0 mi SW 23.0 mph - N/A Rain Light Freezing Rain
12:30 PM 21.2 °F 4.2 °F 15.8 °F 80% 29.86 in 4.0 mi WSW 25.3 mph - N/A Rain Light Freezing Rain
12:47 PM 21.2 °F 4.9 °F 15.8 °F 80% 29.86 in 7.0 mi WSW 23.0 mph - N/A Rain Light Freezing Rain
1:13 PM 21.2 °F 4.9 °F 15.8 °F 80% 29.86 in 8.0 mi SW 23.0 mph - N/A   Mostly Cloudy
1:33 PM 19.4 °F 3.6 °F 14.0 °F 80% 29.86 in 4.0 mi SW 19.6 mph - N/A   Haze
1:54 PM 20.1 °F 3.1 °F 14.0 °F 77% 29.86 in 8.0 mi SW 24.2 mph - N/A   Mostly Cloudy
2:09 PM 19.4 °F 2.5 °F 14.0 °F 80% 29.86 in 3.0 mi SW 23.0 mph - N/A   Haze
2:34 PM 19.4 °F 2.5 °F 14.0 °F 80% 29.87 in 7.0 mi SW 23.0 mph - N/A   Overcast
2:53 PM 19.4 °F 4.1 °F 12.2 °F 74% 29.87 in 6.0 mi SW 18.4 mph - N/A   Haze
3:13 PM 19.4 °F 2.1 °F 12.2 °F 74% 29.89 in 5.0 mi SW 24.2 mph - N/A   Haze
3:34 PM 19.4 °F 2.5 °F 12.2 °F 74% 29.89 in 6.0 mi SW 23.0 mph - N/A   Haze
3:53 PM 19.4 °F 3.6 °F 12.2 °F 74% 29.90 in 8.0 mi SW 19.6 mph - N/A   Mostly Cloudy
4:14 PM 17.6 °F -1.0 °F 12.2 °F 79% 29.91 in 7.0 mi SW 26.5 mph - N/A   Overcast
4:22 PM 17.6 °F -0.3 °F 12.2 °F 79% 29.91 in 4.0 mi SW 24.2 mph - N/A Rain Light Freezing Rain
4:53 PM 17.1 °F 0.6 °F 11.1 °F 77% 29.93 in 8.0 mi SW 19.6 mph - N/A   Mostly Cloudy
5:13 PM 17.6 °F 1.3 °F 10.4 °F 73% 29.93 in 10.0 mi SW 19.6 mph - N/A   Partly Cloudy
5:33 PM 17.6 °F 2.2 °F 10.4 °F 73% 29.95 in 10.0 mi SW 17.3 mph - N/A   Clear
5:53 PM 15.8 °F 0.9 °F 10.4 °F 79% 29.95 in 10.0 mi SW 15.0 mph - N/A   Clear
6:13 PM 15.8 °F 0.3 °F 10.4 °F 79% 29.96 in 10.0 mi SW 16.1 mph - N/A   Scattered Clouds
6:33 PM 15.8 °F -0.2 °F 10.4 °F 79% 29.97 in 10.0 mi SW 17.3 mph - N/A   Partly Cloudy
6:53 PM 15.8 °F 0.3 °F 8.6 °F 73% 29.98 in 10.0 mi SW 16.1 mph - N/A   Clear
7:14 PM 15.8 °F 0.3 °F 8.6 °F 73% 29.99 in 10.0 mi SW 16.1 mph - N/A   Clear
7:33 PM 15.8 °F -0.2 °F 8.6 °F 73% 30.00 in 10.0 mi SW 17.3 mph - N/A   Clear
7:53 PM 15.1 °F -1.6 °F 9.1 °F 77% 30.00 in 10.0 mi SW 18.4 mph - N/A   Mostly Cloudy
8:14 PM 15.8 °F 0.9 °F 8.6 °F 73% 30.01 in 10.0 mi SW 15.0 mph - N/A   Overcast
8:33 PM 15.8 °F 0.3 °F 8.6 °F 73% 30.01 in 10.0 mi SW 16.1 mph - N/A   Mostly Cloudy
8:54 PM 15.1 °F -1.6 °F 8.1 °F 74% 30.02 in 10.0 mi SW 18.4 mph - N/A   Mostly Cloudy
9:13 PM 15.8 °F -0.6 °F 8.6 °F 73% 30.02 in 10.0 mi SW 18.4 mph - N/A   Mostly Cloudy
9:33 PM 15.8 °F 0.3 °F 8.6 °F 73% 30.02 in 10.0 mi WSW 16.1 mph - N/A   Mostly Cloudy
9:53 PM 15.8 °F 1.4 °F 8.6 °F 73% 30.03 in 10.0 mi WSW 13.8 mph - N/A   Overcast
10:13 PM 15.8 °F 1.4 °F 8.6 °F 73% 30.04 in 10.0 mi WSW 13.8 mph - N/A   Overcast
10:34 PM 15.8 °F -0.2 °F 8.6 °F 73% 30.04 in 10.0 mi SW 17.3 mph - N/A   Overcast
10:53 PM 15.1 °F -0.6 °F 8.1 °F 74% 30.04 in 10.0 mi SW 16.1 mph - N/A   Mostly Cloudy
11:13 PM 15.8 °F 1.4 °F 8.6 °F 73% 30.04 in 10.0 mi SW 13.8 mph - N/A   Mostly Cloudy
11:34 PM 15.8 °F 0.9 °F 8.6 °F 73% 30.05 in 10.0 mi SW 15.0 mph - N/A   Overcast
11:53 PM 16.2 °F 1.9 °F 9.1 °F 74% 30.05 in 10.0 mi SW 13.8 mph - N/A   Overcast